Regional Weather Roundup
Issued by NWS

Home | Current Version | Previous Version | Text Only | Print | Product List | Glossary On
Versions: 1 2 3 4 5 6 7 8 9 10 11 12 13 14 15 16 17 18 19 20 21 22 23 24 25 26 27 28 29 30 31 32 33 34 35 36 37 38 39
000
ASUS43 KDMX 261507
RWRIA

WEATHER ROUNDUP FOR IOWA
NATIONAL WEATHER SERVICE DES MOINES IA
900 AM CST FRI DEC 26 2014

NOTE: "FAIR" INDICATES FEW OR NO CLOUDS BELOW 12,000 FEET WITH NO
SIGNIFICANT WEATHER AND/OR OBSTRUCTIONS TO VISIBILITY.

* - THESE STATIONS ARE NOT NWS STATIONS...THUS NOT UNDER NWS
QUALITY CONTROL.  THEY ALSO DO NOT REPORT WEATHER SUCH
AS PRECIPITATION OR FOG.

IAZ001>003-012>014-020>022-031>034-043>046-261600-
   NORTHWEST IOWA

CITY           SKY/WX    TMP DP  RH WIND       PRES   REMARKS
CARROLL *      CLOUDY    32  32 100 N16       29.95R FOG     WCI  21
CHEROKEE *     CLOUDY    30  30 100 N10G17    29.99R WCI  21
DENISON *      CLOUDY    32  32 100 N13       29.94S FOG     WCI  22
LE MARS *      CLOUDY    30  28  93 N10G17    30.02R WCI  21
ORANGE CITY *  CLOUDY    30  27  86 N10G20    29.99R WCI  21
SHELDON *      CLOUDY    28  28 100 N16       29.99R WCI  17
SIOUX CITY     CLOUDY    31  27  85 N13       30.03R WCI  21
SPENCER        CLOUDY    31  28  89 N14       29.97R WCI  21
STORM LAKE *   CLOUDY    30  30 100 N14G20    29.97R FOG     WCI  20
$$

IAZ055>058-069>071-079>083-090>094-261600-
   SOUTHWEST IOWA

CITY           SKY/WX    TMP DP  RH WIND       PRES   REMARKS
ATLANTIC *     CLOUDY    32  32 100 N13       29.93S FOG     WCI  22
AUDUBON *      CLOUDY    32  27  80 N15       29.94S HAZE    WCI  22
CLARINDA *     CLOUDY    32  32 100 N8        29.97R FOG     WCI  25
COUNCIL BLFS * CLOUDY    34  34 100 N13       29.95R WCI  25
CRESTON *      SUNNY     30  30 100 NW14      29.92R WCI  20
HARLAN  *      CLOUDY    32  32 100 N15G22    29.97F WCI  22
LAMONI         PTSUNNY   35  31  85 SW7       29.92R WCI  29
RED OAK *      CLOUDY    34  32  93 N13       29.96R WCI  25
SHENANDOAH *   CLOUDY    34  32  93 N13       29.97R WCI  25
$$

IAZ047>049-059>061-072>074-084-261600-
   CENTRAL IOWA

CITY           SKY/WX    TMP DP  RH WIND       PRES   REMARKS
AMES           PTSUNNY   28  26  92 N13       29.93R FOG     WCI  17
ANKENY *       SUNNY     32  30  93 NW9       29.92R WCI  24
CHARITON *     MOSUNNY   39  34  81 S7        29.92R WCI  34
DES MOINES     PTSUNNY   33  29  85 NW12      29.93R WCI  24
GRINNELL*      MOSUNNY   34  32  93 S3        29.91R
KNOXVILLE *    PTSUNNY   39  32  75 SW5       29.91R
MARSHALLTOWN   SUNNY     33  29  85 W5        29.90R WCI  29
PELLA *        MOSUNNY   37  32  81 SW3       29.94R
PERRY *        FOG       32  32 100 N10       29.94R VSB 3/4 WCI  24
$$

IAZ004>006-015-016-023>025-035-036-261600-
   NORTH CENTRAL IOWA

CITY           SKY/WX    TMP DP  RH WIND       PRES   REMARKS
ALGONA *       CLOUDY    32  32 100 N15G22    29.95R FOG     WCI  22
CLARION *      FOG       32  32 100 N9G17     29.93R VSB 1/2 WCI  24
ESTHERVILLE    CLOUDY    30  29  96 N16       29.95R FOG     WCI  19
FORT DODGE *   CLOUDY    32  28  86 N10       29.95R WCI  24
MASON CITY     FOG       30  29  96 N9        29.93R VSB 1/4 WCI  22
FOREST CITY *  CLOUDY    32  32 100 N13G20    29.92R FOG     WCI  22
IOWA FALLS *     N/A     30  28  93 NW9       29.93R WCI  22
$$

IAZ007>011-017>019-026>030-037>042-050>054-066-261600-
   NORTHEAST IOWA

CITY           SKY/WX    TMP DP  RH WIND       PRES   REMARKS
CEDAR RAPIDS     N/A     38  33  82 S7        29.92R WCI  33
CHARLES CITY * SUNNY     32  32 100 CALM      29.91R
CLINTON *      PTSUNNY   43  34  70 SW8       30.00R
DECORAH *      SUNNY     36  32  87 CALM      29.90R
DUBUQUE        SUNNY     35  32  88 S8        29.93R WCI  29
MONTICELLO *   SUNNY     37  36  93 S7        29.93R WCI  32
OELWEIN *      SUNNY     34  32  93 S6        29.92R WCI  29
WATERLOO       SUNNY     31  28  89 CALM      29.91R
$$

IAZ064-065-067-068-078-261600-
   EAST CENTRAL IOWA

CITY           SKY/WX    TMP DP  RH WIND       PRES   REMARKS
DAVENPORT      PTSUNNY   41  33  73 S13       29.97R
IOWA CITY      PTSUNNY   40  34  79 S6        29.95R
MT. PLEASANT * CLOUDY    41  36  81 S12       29.97R
MUSCATINE *    SUNNY     43  36  75 S10G16    29.96S
QUAD CITIES    PTSUNNY   42  34  73 SW9       29.97R
$$

IAZ062-063-075>077-085>089-095>099-261600-
   SOUTHEAST IOWA

CITY           SKY/WX    TMP DP  RH WIND       PRES   REMARKS
BURLINGTON     CLOUDY    42  36  79 S13       29.98R
FAIRFIELD *    MOSUNNY   43  34  70 S12       29.95R
FORT MADISON * SUNNY     45  37  76 S13G20    29.98R
KEOKUK *       SUNNY     43  36  75 S17G23    29.98R
OSKALOOSA *      N/A     39  34  81 SW8       29.92R WCI  34
CENTERVILLE *  SUNNY     43  36  75 S10       29.94R
OTTUMWA        CLOUDY    40  33  76 S10       29.92R WCI  33
WASHINGTON *   SUNNY     41  37  87 S14       29.94R
$$

ABBREVIATIONS USED IN REMARKS
   TC - TEMPERATURES IN CELSIUS
  WCI - WIND CHILL INDEX
   HX - HEAT INDEX
  VSB - VISIBILITY
$$




USA.gov is the U.S. government's official web portal to all federal, state and local government web resources and services.